Flag for India Weather past 2 weeks in Muktsar, Punjab, India

Now
84 °F

Haze.


Feels Like: 83 °F
Forecast: 81 / 110 °F
Wind: 7 mph from Northeast

Location: Lahore Airport

Current Time: May 25, 2015 at 7:39:22 AM

Latest Report: May 25, 2015 at 6:25 AM


Visibility: 2 mi

Pressure: 29.50 "Hg

Humidity: 37%

Dew point: 55 °F

Location of MuktsarLocation

Historic Weather in Muktsar — Graph

°F

Muktsar temperature yesterday

Maximum temperature yesterday: 108 °F (at 3:25 PM)
Minimum temperature yesterday: 84 °F (at 4:25 AM)
Average temperature yesterday: 96 °F

Past Weeks' High & Low Weather Summary

 TemperatureHumidityPressure
High111 °F (May 23, 2:55 PM)83% (May 11, 9:55 PM)29.89 "Hg (May 11, 9:55 PM)
Low70 °F (May 13, 5:25 AM)12% (May 20, 4:30 PM)29.42 "Hg (May 23, 4:25 PM)
Average90 °F40%29.64 "Hg
* Reported May 10 6:30 AM — May 25 6:25 AM, Muktsar, Weather by CustomWeather, © 2015

Note: Actual official high and low records may vary slightly from our data, if they occured in-between our weather recording intervals... More about our weather records

Advertising

Muktsar weather history for previous 24 hours

 ConditionsComfort  
Time TempWeatherWind HumidityBarometerVisibility
6:25 AM
Mon, May 25
84 °FHaze.7 mph37%29.50 "Hg2 mi
5:25 AM84 °FHaze.8 mph35%29.50 "Hg2 mi
4:55 AM84 °FHaze.8 mph37%29.50 "Hg2 mi
4:25 AM84 °FHaze.8 mph37%29.50 "Hg2 mi
3:55 AM84 °FHaze.8 mph37%29.47 "Hg2 mi
3:25 AM86 °FHaze.6 mph38%29.47 "Hg2 mi
2:25 AM86 °FHaze.9 mph35%29.47 "Hg2 mi
1:55 AM88 °FHaze.9 mph35%29.47 "Hg2 mi
1:25 AM88 °FHaze.7 mph35%29.50 "Hg2 mi
12:55 AM90 °FHaze.9 mph31%29.50 "Hg2 mi
12:25 AM90 °FHot.6 mph31%29.50 "HgN/A
11:55 PM
Sun, May 24
91 °FHaze.10 mph30%29.50 "Hg2 mi
11:25 PM91 °FHaze.9 mph41%29.53 "Hg2 mi
10:55 PM93 °FHaze.12 mph30%29.53 "Hg2 mi
10:25 PM93 °FHaze.10 mph30%29.53 "Hg2 mi
9:55 PM95 °FHaze.12 mph26%29.53 "Hg2 mi
9:25 PM97 °FHaze.14 mph25%29.50 "Hg2 mi
8:55 PM97 °FHaze.14 mph25%29.50 "Hg2 mi
8:25 PM99 °FHaze.14 mph24%29.50 "Hg2 mi
7:55 PM100 °FHaze.12 mph21%29.47 "Hg3 mi
7:25 PM102 °FHaze.12 mph20%29.47 "Hg2 mi
6:55 PM104 °FHaze.10 mph16%29.47 "Hg3 mi
6:25 PM104 °FHaze.10 mph16%29.45 "Hg3 mi
5:55 PM104 °FHaze.13 mph16%29.45 "Hg3 mi
5:25 PM106 °FHaze.14 mph15%29.45 "Hg3 mi
4:55 PM108 °FHaze.14 mph15%29.45 "Hg3 mi
4:25 PM108 °FHaze.13 mph15%29.45 "Hg3 mi
3:55 PM108 °FHaze.13 mph15%29.47 "Hg3 mi
3:25 PM108 °FHaze.12 mph15%29.47 "Hg3 mi
2:55 PM106 °FHaze.10 mph15%29.47 "Hg3 mi
2:25 PM106 °FClear.9 mph15%29.47 "Hg4 mi
1:55 PM106 °FClear.No wind17%29.50 "Hg4 mi
1:25 PM106 °FClear.7 mph17%29.50 "Hg4 mi
12:55 PM106 °FPassing clouds.7 mph18%29.50 "Hg4 mi
12:25 PM104 °FPassing clouds.5 mph16%29.53 "Hg4 mi
11:55 AM102 °FPassing clouds.5 mph18%29.53 "Hg5 mi
11:25 AM100 °FPassing clouds.9 mph20%29.53 "Hg5 mi
10:55 AM97 °FScattered clouds.7 mph25%29.53 "Hg5 mi
10:25 AM95 °FScattered clouds.7 mph26%29.53 "Hg4 mi
9:55 AM95 °FScattered clouds.7 mph26%29.53 "Hg4 mi
9:25 AM93 °FClear.12 mph28%29.53 "Hg4 mi
8:55 AM91 °FClear.12 mph28%29.50 "Hg4 mi
8:25 AM90 °FClear.8 mph29%29.50 "Hg4 mi
7:55 AM90 °FPassing clouds.7 mph31%29.50 "Hg4 mi
7:25 AM88 °FScattered clouds.7 mph33%29.50 "Hg4 mi
Weather by CustomWeather, © 2015

See weather overviewHow to use our weather pages